Location: Bill Sadowski Park
(25.6087°N, 80.3181°W)
Time: 12:54:22
(UTC-04:00)

Hubble Space Telescope - Visible Passes

Search period start: 18 October 2017 00:00
Search period end: 28 October 2017 00:00
Orbit: 537 x 541 km, 28.5° (Epoch: 17 October)

Date Brightness Start Highest point End Pass type
(mag) Time Alt. Az. Time Alt. Az. Time Alt. Az.
18 Oct 2.2 20:45:42 10° WSW 20:48:09 33° SW 20:48:09 33° SW visible
19 Oct 1.4 20:35:28 10° WSW 20:38:43 52° SW 20:38:43 52° SW visible
20 Oct 0.7 20:25:17 10° WSW 20:29:13 81° WSW 20:29:13 81° WSW visible
21 Oct 0.6 20:15:08 10° W 20:19:15 80° NNW 20:19:41 69° NE visible
22 Oct 0.8 20:05:00 10° W 20:09:07 70° N 20:10:06 48° NE visible
23 Oct 0.9 19:54:53 10° W 19:58:58 63° N 20:00:30 35° ENE visible
24 Oct 1.0 19:44:46 10° W 19:48:51 59° N 19:50:53 27° ENE visible
24 Oct 4.1 21:26:09 10° WNW 21:26:15 10° WNW 21:26:15 10° WNW visible
25 Oct 1.1 19:34:39 10° W 19:38:43 56° N 19:41:16 21° ENE visible
25 Oct 3.8 21:16:00 10° WNW 21:16:38 14° WNW 21:16:38 14° WNW visible
26 Oct 1.1 19:24:31 10° WNW 19:28:36 56° N 19:31:41 16° ENE visible
26 Oct 3.4 21:05:50 10° WNW 21:07:03 19° WNW 21:07:03 19° WNW visible
27 Oct 1.0 19:14:24 10° WNW 19:18:29 57° N 19:22:07 13° E visible
27 Oct 2.9 20:55:40 10° WNW 20:57:29 25° W 20:57:29 25° W visible
